User: anonymous   Login
Location: Langangen
(59.1000°N, 9.8000°E)
Time: 18:43:57
(UTC+01:00)
Language:

Iridium 60 - Orbit

View from above orbital plane
View from above orbital plane
View from above satellite
View from above satellite

Ground track
Ground track

The orbit data is extracted from the following two-line orbital elements,

1 25276U 98019E   15087.00717853  .00000247  00000-0  81289-4 0  9996
2 25276 086.3916 266.4825 0002089 093.8601 266.2834 14.34219012889650
Epoch (UTC): 28 March 2015 00:10:20
Eccentricity: 0.0002089
inclination: 86.3916°
perigee height: 776 km
apogee height: 779 km
right ascension of ascending node: 266.4825°
argument of perigee: 93.8601°
revolutions per day: 14.34219012
mean anomaly at epoch: 266.2834°
orbit number at epoch: 88965

The dashed part of the orbit path shows where the satellite is in the earth's shadow,  

DLR